Temperature
13 13 14 14 13 12 13 13 15 16 17 18 19 19 18 17 18 18 17 17 17 17 16 16 16 16 16 16 16 16 16 16 16 16 16 16 16 16 16 16 16 16 16 16 16 16 16 16 16
12 13 13 13 12 12 12 13 15 16 18 18 18 18 17 17 17 17 16 17 17 17 16 16 16 16 16 16 16 16 17 16 16 16 16 16 16 16 16 16 16 16 16 16 16 16 16 16 16
12 12 13 11 11 12 13 14 15 17 18 18 17 18 17 17 17 17 17 16 16 16 16 16 16 16 16 16 16 16 17 16 16 16 16 16 16 17 17 17 17 17 17 17 16 16 16 16 16
11 12 12 11 12 13 14 15 15 16 17 18 17 16 17 17 17 17 16 16 16 16 16 16 16 16 16 16 16 16 17 16 16 16 16 17 17 17 17 17 17 17 17 17 17 16 16 16 16
11 11 11 11 12 13 13 15 16 16 16 17 17 16 16 17 17 17 16 16 16 16 16 16 16 16 16 16 16 16 17 16 16 16 17 17 17 17 17 17 17 17 17 17 17 17 16 16 16
11 10 10 11 12 13 13 15 16 16 16 17 17 16 16 17 17 17 17 16 16 16 16 15 16 16 16 16 16 16 17 17 17 17 17 17 17 17 17 17 17 17 17 17 17 16 16 16 16
10 9 10 11 12 13 14 16 16 15 15 16 17 16 16 17 17 17 17 16 16 16 16 15 15 16 16 16 16 16 17 17 17 17 17 17 17 17 17 17 17 17 17 17 17 16 16 16 16
10 9 10 10 12 13 14 15 16 16 16 17 17 16 16 17 17 17 16 16 16 16 15 15 15 16 16 16 16 16 16 17 17 17 17 17 17 17 17 17 17 17 17 17 16 16 16 16 16
10 9 9 10 12 13 14 14 15 15 16 16 16 17 17 17 16 16 16 15 15 15 15 15 15 15 16 16 16 16 16 17 17 17 17 17 17 17 17 17 17 17 17 16 16 16 16 16 16
9 9 10 11 11 12 13 14 14 15 15 15 16 16 17 16 16 16 16 16 15 15 15 15 15 15 15 15 16 16 16 16 17 17 17 17 17 17 17 17 17 17 16 16 16 16 16 16 15
9 9 10 11 11 12 12 13 14 14 13 14 15 16 16 16 16 16 16 16 16 16 15 15 15 15 15 15 16 16 16 16 17 17 17 17 17 17 17 17 17 16 16 16 16 16 16 15 15
8 9 10 10 11 12 12 12 13 13 13 15 16 16 16 16 15 15 16 16 16 15 16 15 15 15 15 16 16 16 16 16 17 17 17 17 17 17 17 16 16 16 16 16 16 15 15 15 15
8 9 10 10 11 11 12 12 12 13 14 15 15 16 16 16 16 16 16 16 15 15 16 15 15 15 15 15 16 16 16 16 16 16 16 17 17 17 16 16 16 16 16 15 15 15 15 15 14
8 8 9 10 10 10 11 11 12 12 13 14 15 15 16 16 16 16 15 16 16 16 16 16 15 15 15 15 16 16 16 16 16 16 16 16 16 16 16 16 16 16 15 15 15 15 14 14 14
8 8 9 9 10 10 11 11 11 12 13 13 14 14 15 15 16 16 16 16 16 16 16 16 16 15 15 15 15 16 16 16 16 16 16 16 16 16 16 16 15 15 15 15 14 14 14 14 14
8 8 8 9 9 10 10 10 11 12 12 13 13 14 15 15 15 15 15 16 16 16 16 16 15 15 15 15 15 15 15 15 15 15 15 15 15 15 15 15 15 15 14 14 14 14 14 14 13
7 7 8 9 9 9 9 9 10 11 12 12 13 14 14 15 15 15 15 15 15 16 15 16 15 15 15 15 15 15 15 15 15 15 15 15 15 15 15 15 14 14 14 14 14 14 13 13 13
7 7 7 8 9 9 9 9 10 11 11 11 12 13 14 14 15 15 15 15 15 15 15 15 15 15 15 15 15 15 15 15 15 15 15 15 15 15 14 14 14 14 14 14 14 13 13 13 13
7 7 7 8 9 9 9 9 9 10 11 11 12 13 14 14 15 15 15 15 16 15 15 15 15 15 15 15 15 15 15 15 15 15 15 15 15 14 14 14 14 14 14 14 13 13 13 13 13
8 7 7 8 9 9 8 8 9 9 10 11 12 13 14 14 15 15 15 15 15 15 15 15 15 15 15 15 15 15 15 15 15 15 15 14 14 14 14 14 14 14 13 13 13 13 13 13 12
7 7 7 8 8 8 8 8 9 9 10 11 12 13 14 14 15 15 15 15 15 15 16 16 15 15 15 15 15 15 15 15 15 15 15 14 14 14 14 14 14 13 13 13 13 13 13 13 12
7 8 8 8 8 7 8 8 8 8 9 9 11 12 13 14 14 15 15 15 15 15 16 16 15 15 15 15 15 15 15 15 15 15 15 15 14 14 14 14 13 13 13 13 13 13 12 12 12
7 8 8 8 7 7 7 7 8 8 9 10 10 12 13 14 14 14 15 15 15 15 15 15 15 15 15 15 15 15 15 14 15 14 14 14 14 14 14 13 13 13 13 13 13 12 12 12 12
7 7 7 6 7 7 7 7 8 7 9 9 10 11 12 13 14 14 14 15 15 15 15 15 15 15 15 15 15 15 15 14 14 14 14 14 14 14 13 13 13 13 13 13 12 12 12 12 11
7 6 6 6 6 6 7 7 7 8 8 9 9 10 12 13 13 13 14 14 15 15 15 15 15 15 15 15 14 14 14 14 14 14 14 14 14 14 13 13 13 13 12 12 12 12 11 11 11
7 7 6 6 6 6 6 7 7 8 8 9 9 10 11 12 12 13 13 14 14 14 14 15 15 14 14 14 14 14 14 14 14 14 14 13 13 13 13 13 12 12 12 12 11 11 11 11 10
7 6 6 5 5 6 6 6 7 8 8 8 9 9 10 11 11 12 13 13 13 13 14 14 14 14 14 14 14 14 13 13 13 13 13 13 13 12 12 12 12 12 11 11 11 11 10 10 10
7 6 5 5 6 6 6 6 6 8 8 7 7 8 9 10 11 12 12 13 13 13 13 13 13 13 13 13 13 13 13 13 13 13 12 12 12 12 12 11 11 11 11 11 10 10 10 9 9
6 6 5 4 5 5 6 7 7 7 7 6 6 8 9 9 10 11 11 12 12 12 12 12 12 12 12 12 12 12 12 12 12 12 12 11 11 11 11 11 11 10 10 10 10 9 9 9 8
6 6 5 5 5 4 5 6 8 6 6 6 7 8 8 9 9 10 10 11 11 11 12 12 12 12 12 12 12 12 11 11 11 11 11 11 10 10 10 10 10 10 10 9 9 9 8 8 7
Wind_Speed
7 4 2 3 3 2 7 7 4 4 4 2 2 4 5 4 4 3 2 8 14 14 18 21 20 19 19 18 17 16 15 15 15 16 17 17 18 19 19 19 19 19 18 18 18 17 17 16 15
4 0 3 3 5 6 8 8 7 6 4 2 2 4 3 1 2 5 7 9 15 15 17 19 21 20 19 18 17 16 15 15 15 16 16 17 18 18 18 18 18 18 18 17 17 16 15 15 14
3 1 3 4 6 11 9 7 9 5 3 2 2 2 3 2 4 6 7 14 13 12 16 19 21 20 19 18 17 16 15 15 16 16 16 17 17 17 17 17 17 17 17 16 16 15 14 13 13
0 2 2 4 11 10 8 5 5 3 2 1 3 3 1 1 4 6 12 14 13 10 15 19 20 20 19 18 17 16 15 16 16 16 17 17 17 17 17 17 16 16 15 15 14 14 13 13 12
2 3 5 7 12 7 6 5 4 4 3 2 3 4 1 2 6 13 15 15 14 11 14 18 20 19 18 18 17 16 16 15 16 16 16 16 17 17 16 16 15 15 14 13 13 13 12 12 12
2 2 6 10 10 6 5 6 3 3 4 3 4 4 1 3 10 14 15 13 13 12 13 16 19 18 18 17 17 16 16 15 16 16 16 16 16 16 16 15 14 13 13 12 11 11 11 10 10
3 4 6 8 8 7 6 5 5 5 5 6 5 5 2 5 9 12 12 12 11 11 11 12 15 16 17 17 17 16 16 15 15 15 15 15 15 15 15 14 13 12 11 10 10 9 9 8 8
3 3 5 6 7 7 4 3 3 5 5 3 4 7 6 8 10 12 11 10 10 9 9 10 12 13 13 14 16 16 16 15 15 15 15 15 14 14 13 12 11 11 10 9 8 7 7 6 6
2 3 6 6 6 4 2 3 1 1 3 2 2 3 5 13 14 13 11 10 11 11 9 9 9 11 12 12 14 15 15 15 15 14 15 14 12 11 11 10 10 9 8 7 6 5 5 4 4
3 4 6 3 3 2 1 2 1 1 2 1 1 1 9 14 15 16 16 15 14 13 11 9 9 9 11 11 11 12 12 12 12 12 13 12 11 10 9 10 9 8 7 6 4 3 3 3 3
3 4 3 2 1 1 1 1 1 3 2 4 5 8 12 13 14 15 15 15 14 13 12 11 9 9 9 8 9 9 9 10 11 12 12 11 9 8 7 7 6 6 5 4 3 2 1 1 1
1 2 3 2 2 1 1 1 1 0 4 6 7 10 14 15 15 15 14 13 12 12 12 11 10 9 9 9 8 8 8 8 9 11 12 10 7 6 6 5 6 5 5 4 3 2 1 1 1
1 1 2 2 2 2 1 1 1 2 5 4 2 8 11 12 11 11 12 12 11 12 12 12 11 10 8 8 7 8 8 9 10 11 12 12 8 5 6 6 6 6 6 5 4 3 2 2 2
1 1 1 3 2 2 2 2 0 3 4 3 1 5 7 8 8 8 10 12 13 12 12 12 12 10 9 7 6 7 9 10 10 11 12 13 11 8 6 5 6 7 8 7 6 4 3 2 2
1 1 2 3 2 2 0 2 2 4 3 2 1 1 2 4 6 7 10 10 11 12 11 12 12 11 10 9 8 8 9 11 10 11 13 14 12 11 8 5 5 7 9 8 5 4 3 2 2
2 2 0 2 1 1 3 4 4 4 2 2 3 2 2 2 5 6 7 9 9 9 11 12 12 12 12 10 8 7 9 9 9 11 12 13 14 13 9 5 5 8 8 6 3 3 2 2 2
2 2 1 2 2 2 3 3 6 4 3 4 4 4 3 3 3 5 7 8 9 10 11 11 11 11 11 10 7 6 7 7 8 10 10 12 14 14 11 7 7 8 6 4 3 3 3 3 2
3 2 1 1 2 3 1 4 7 5 2 5 5 4 4 5 6 5 5 6 7 8 9 10 10 10 9 8 6 5 5 5 6 8 10 12 12 13 11 7 7 7 4 4 3 3 3 2 2
4 3 1 1 1 1 1 5 8 6 4 6 6 4 5 6 6 3 4 5 5 6 8 10 11 10 9 6 6 6 7 6 5 6 9 11 11 12 10 6 5 6 5 5 5 3 3 2 2
4 4 1 1 0 1 1 5 7 6 6 7 7 7 6 7 6 4 3 4 5 6 8 8 10 11 11 9 7 5 5 4 5 4 5 9 10 10 9 7 6 5 5 5 5 4 3 2 3
2 3 2 2 1 2 2 5 6 5 5 7 7 6 6 7 7 6 4 5 5 7 8 8 9 10 11 11 6 4 4 3 4 4 5 6 8 9 8 8 6 5 5 5 5 5 5 3 2
1 2 2 3 3 1 1 3 6 4 5 7 7 7 7 6 6 5 5 5 6 7 6 7 8 9 9 9 9 10 9 8 8 6 6 5 7 8 8 8 7 6 5 5 4 4 3 3 3
2 1 2 2 2 1 1 1 6 3 4 7 7 7 7 6 5 6 6 6 6 5 4 5 7 8 8 9 10 11 9 7 5 5 6 6 5 5 6 6 5 5 5 5 5 4 4 3 3
3 4 5 4 3 1 2 2 5 3 5 5 6 6 6 6 5 5 5 4 4 3 3 3 5 6 6 8 9 10 10 8 7 7 7 6 4 4 5 5 5 4 4 4 4 4 4 3 3
4 5 3 4 3 3 2 2 6 6 5 5 7 7 7 5 4 4 4 4 4 3 3 3 4 5 5 6 7 8 8 9 10 8 8 7 5 4 5 5 5 4 4 4 4 4 3 3 3
2 4 4 3 2 4 3 4 7 6 5 4 4 4 5 5 4 5 4 4 4 4 3 2 4 4 4 5 6 6 6 6 6 6 6 7 6 5 6 6 5 5 5 5 4 3 3 3 3
3 2 4 4 1 2 4 6 8 4 5 7 7 7 6 6 6 6 5 4 3 3 3 3 3 4 4 4 5 5 6 6 6 5 5 5 5 5 6 6 6 5 5 5 5 4 3 3 3
3 4 4 3 2 2 5 4 4 6 7 8 9 8 8 8 7 6 5 5 4 3 3 2 2 3 3 3 4 3 4 4 5 5 5 5 5 6 7 6 7 6 5 5 5 4 4 4 2
2 2 3 2 2 3 2 5 4 3 4 6 7 7 8 8 8 7 6 5 4 3 2 2 1 1 2 2 2 3 3 4 5 5 6 6 6 7 7 7 7 6 5 5 5 4 4 4 3
3 3 4 3 2 2 2 6 4 2 3 4 6 8 8 8 7 7 6 6 5 5 4 3 2 1 2 2 3 3 3 4 5 5 6 7 7 6 6 7 7 6 5 5 5 5 4 4 3
Wind_Direction
307 334 62 66 94 153 222 227 215 218 203 189 149 136 138 157 178 205 111 138 135 143 148 146 144 141 138 133 128 126 126 127 126 127 126 124 121 118 116 115 113 112 110 107 105 103 100 98 95
306 68 75 93 165 199 225 219 218 217 189 140 98 105 92 129 108 116 134 142 139 142 145 146 144 142 140 135 132 130 131 130 130 130 129 126 122 120 118 116 115 114 111 109 106 103 101 99 95
301 155 150 147 192 206 214 208 217 231 221 161 114 96 127 158 139 141 147 143 136 138 143 146 145 144 142 139 136 134 134 133 132 132 130 128 125 123 121 119 117 115 113 111 109 104 101 99 96
105 106 130 187 215 218 213 202 192 209 223 188 139 107 89 113 154 144 141 140 134 134 140 147 146 146 145 143 141 138 137 136 135 133 131 130 129 126 124 122 120 118 117 115 112 107 102 97 96
98 153 185 210 222 228 228 232 188 185 200 183 145 136 134 349 123 134 141 142 140 138 142 148 147 149 149 148 146 144 141 139 138 137 135 133 131 129 127 126 125 123 122 120 116 110 105 100 98
139 159 192 208 218 229 233 222 186 197 214 197 157 137 152 124 134 142 146 147 146 144 144 149 150 151 153 153 151 149 147 144 142 141 139 138 136 134 133 132 131 130 127 123 119 112 106 102 99
170 175 200 202 206 219 225 205 184 191 210 205 170 135 146 151 147 143 144 145 145 145 143 146 150 153 157 157 155 154 153 149 147 146 143 141 141 141 140 139 138 136 132 128 123 115 108 103 100
174 168 196 196 195 212 220 198 184 188 207 205 166 160 172 167 148 139 139 145 148 145 146 145 148 152 155 159 160 158 156 154 152 148 144 144 145 146 145 145 144 142 139 135 130 121 110 101 97
157 189 203 196 188 196 192 188 228 205 159 198 220 195 160 145 144 142 145 154 159 160 155 152 151 152 155 158 162 160 159 158 154 151 149 147 147 147 147 150 149 149 148 146 140 129 108 87 79
168 201 215 200 189 197 222 189 237 131 159 192 192 115 130 145 151 159 164 169 172 174 171 165 160 158 158 161 159 159 159 159 156 157 155 153 153 154 155 159 161 161 160 158 153 133 100 79 63
183 197 221 266 264 239 246 286 334 148 193 215 198 167 151 157 160 171 173 175 179 178 177 173 167 165 163 159 160 161 159 159 161 164 163 160 157 160 161 165 170 171 170 167 159 127 109 89 50
183 236 247 284 336 330 251 251 4 182 246 258 219 177 166 170 173 175 178 180 180 180 183 177 172 170 169 164 167 168 168 169 172 174 172 166 164 169 175 180 184 183 184 185 187 186 213 259 286
223 245 265 302 348 339 299 222 200 289 297 305 172 160 168 175 180 182 181 182 185 189 184 181 177 176 173 168 173 178 180 181 182 181 182 181 178 182 186 191 193 196 198 198 200 207 223 252 281
208 232 258 320 325 323 279 275 3 306 333 10 115 169 175 180 180 180 186 185 187 191 189 185 183 179 176 177 179 184 187 186 185 189 192 192 191 191 190 193 198 204 207 209 208 209 212 238 263
327 338 3 334 291 313 46 333 258 287 329 357 341 271 194 189 188 193 194 194 190 189 190 193 189 182 182 186 189 190 190 190 193 197 198 198 198 197 195 194 202 211 211 207 205 207 206 226 240
33 59 28 315 321 5 118 242 278 321 345 313 305 289 266 226 210 213 205 200 197 192 193 197 197 189 188 189 190 192 194 194 198 198 198 202 203 201 195 195 209 211 201 193 188 184 196 219 224
58 117 199 317 23 66 115 251 291 323 348 312 306 296 284 276 245 225 214 205 201 198 196 196 196 190 189 188 188 191 192 194 198 197 198 202 202 201 196 200 207 198 187 190 189 184 186 207 223
157 127 148 307 344 50 94 268 290 300 298 290 294 297 286 265 258 246 227 211 201 200 201 200 194 194 186 182 181 185 194 200 197 201 204 202 201 199 196 196 196 183 179 186 187 188 190 196 200
148 138 171 267 289 80 235 267 276 286 282 278 280 276 275 270 270 271 241 217 201 197 201 203 195 194 186 186 191 193 205 204 203 206 205 200 198 194 191 189 183 180 186 189 185 177 188 198 167
125 123 141 19 348 101 301 288 274 265 252 249 252 256 258 266 278 271 257 228 210 207 210 209 203 196 193 195 194 191 185 196 203 198 197 195 191 191 193 187 187 183 181 180 179 174 172 184 169
90 151 166 148 10 22 6 317 287 275 261 265 259 247 249 247 255 263 257 238 224 220 216 215 214 208 201 195 183 170 161 160 178 194 201 198 189 190 190 185 178 177 178 186 186 183 180 189 194
145 223 155 123 99 346 59 301 289 274 282 269 270 266 255 255 255 256 257 252 241 238 229 217 214 214 207 195 191 193 200 206 204 196 194 187 184 182 182 178 175 173 172 178 185 182 180 173 196
162 121 108 107 104 26 26 202 288 310 276 270 270 269 270 266 258 257 251 249 253 250 237 225 217 215 208 200 198 201 210 214 201 181 178 181 180 174 175 177 170 170 170 175 171 166 170 179 187
116 69 55 45 63 340 258 187 284 260 246 277 283 284 283 279 271 269 271 268 269 266 243 229 217 220 210 204 202 202 204 201 190 189 188 186 177 175 169 160 158 162 163 168 164 161 164 173 179
73 81 44 18 13 269 292 211 255 264 266 266 282 291 295 296 286 282 279 277 279 275 252 227 213 223 212 200 200 203 204 199 198 195 191 184 181 182 178 161 154 152 147 142 142 147 153 158 169
91 115 143 179 228 295 309 248 261 278 295 303 299 300 321 323 309 294 285 274 273 272 265 238 222 226 213 203 200 195 194 197 196 191 185 185 187 180 166 155 149 141 136 136 134 135 137 134 140
106 111 146 126 133 295 288 295 307 320 358 2 5 6 352 334 323 311 308 300 283 276 265 237 223 227 215 203 195 194 193 192 186 179 174 168 160 153 149 143 137 133 133 135 134 133 130 129 133
116 136 99 112 144 278 300 292 277 319 341 350 354 353 341 336 334 331 325 317 304 286 281 273 227 225 221 202 195 191 189 180 165 155 160 155 146 141 141 140 137 132 129 126 124 123 127 128 131
89 98 105 113 148 174 274 279 249 265 314 334 333 336 339 336 333 331 331 327 321 324 323 311 288 246 226 205 180 160 159 151 148 147 148 146 143 144 145 145 139 135 131 128 125 125 130 132 128
166 164 145 151 232 186 212 270 288 303 335 348 341 343 343 340 337 336 339 340 339 334 330 313 294 261 232 191 160 151 140 135 137 143 143 141 140 138 140 137 133 132 131 130 133 138 136 138 148
Height
1497 1499 1502 1505 1509 1514 1514 1506 1500 1498 1497 1496 1496 1497 1499 1502 1506 1509 1503 1503 1508 1512 1516 1520 1523 1525 1527 1529 1530 1532 1533 1535 1536 1539 1541 1542 1544 1546 1547 1549 1550 1551 1552 1553 1554 1555 1556 1557 1558
1495 1498 1502 1503 1508 1514 1509 1500 1498 1494 1493 1494 1495 1496 1498 1500 1501 1501 1501 1504 1509 1513 1517 1520 1523 1525 1527 1529 1531 1533 1534 1536 1538 1540 1542 1544 1545 1547 1549 1550 1551 1553 1554 1555 1556 1557 1558 1559 1560
1493 1496 1500 1501 1504 1503 1500 1494 1494 1492 1492 1493 1495 1496 1498 1499 1500 1500 1502 1505 1510 1514 1517 1520 1524 1526 1528 1530 1532 1534 1535 1537 1539 1541 1543 1545 1546 1548 1550 1551 1553 1554 1556 1557 1558 1559 1560 1561 1562
1492 1495 1497 1499 1498 1493 1491 1489 1490 1491 1492 1492 1493 1496 1497 1500 1500 1501 1503 1506 1510 1514 1518 1521 1524 1526 1528 1530 1532 1534 1536 1538 1540 1542 1544 1546 1548 1549 1551 1553 1554 1556 1557 1558 1559 1560 1562 1563 1563
1489 1492 1495 1495 1492 1489 1488 1487 1487 1489 1490 1491 1492 1494 1496 1498 1500 1502 1505 1508 1511 1515 1518 1522 1525 1527 1529 1531 1533 1535 1537 1539 1541 1543 1545 1547 1549 1550 1552 1554 1555 1557 1558 1560 1561 1562 1563 1564 1565
1488 1489 1492 1492 1490 1487 1486 1486 1487 1488 1489 1490 1492 1494 1496 1498 1500 1503 1506 1509 1513 1516 1519 1522 1525 1527 1530 1532 1534 1536 1538 1540 1542 1544 1546 1548 1550 1551 1553 1555 1556 1558 1559 1561 1562 1563 1564 1565 1566
1487 1488 1488 1488 1488 1487 1485 1485 1486 1487 1488 1489 1490 1493 1495 1498 1500 1503 1507 1511 1514 1517 1519 1522 1525 1528 1530 1532 1535 1537 1539 1541 1543 1545 1547 1549 1551 1552 1554 1556 1557 1559 1560 1562 1563 1564 1565 1565 1566
1483 1487 1486 1486 1486 1484 1482 1483 1483 1485 1487 1488 1490 1491 1493 1496 1500 1503 1507 1511 1514 1517 1520 1522 1525 1528 1530 1532 1535 1537 1539 1541 1543 1545 1547 1549 1551 1553 1555 1556 1558 1559 1561 1562 1563 1564 1565 1566 1567
1482 1487 1485 1484 1483 1481 1480 1482 1482 1484 1485 1487 1488 1489 1491 1494 1498 1502 1506 1510 1514 1517 1519 1522 1525 1527 1530 1532 1535 1537 1539 1541 1544 1545 1547 1549 1551 1553 1555 1557 1558 1559 1561 1562 1563 1564 1565 1566 1567
1481 1484 1482 1479 1479 1479 1480 1480 1482 1483 1484 1485 1487 1488 1490 1493 1496 1500 1503 1507 1511 1515 1518 1521 1524 1527 1529 1532 1534 1536 1539 1541 1543 1545 1547 1549 1551 1553 1555 1557 1558 1559 1561 1562 1563 1564 1565 1566 1566
1478 1480 1479 1478 1478 1479 1479 1481 1481 1482 1485 1485 1485 1487 1489 1492 1495 1498 1502 1505 1509 1513 1517 1520 1523 1526 1529 1531 1533 1536 1538 1540 1543 1545 1547 1549 1551 1553 1554 1556 1558 1559 1560 1561 1562 1563 1564 1565 1566
1479 1478 1478 1478 1478 1479 1480 1481 1482 1483 1484 1484 1484 1485 1487 1491 1493 1496 1499 1504 1508 1512 1515 1519 1522 1525 1528 1530 1533 1535 1537 1539 1542 1544 1546 1548 1550 1552 1554 1555 1557 1558 1559 1560 1561 1562 1563 1564 1565
1479 1478 1478 1478 1478 1479 1480 1481 1482 1482 1482 1482 1483 1485 1487 1490 1493 1496 1498 1502 1507 1510 1513 1517 1520 1523 1526 1529 1531 1534 1536 1538 1541 1543 1545 1547 1549 1551 1553 1554 1555 1557 1558 1559 1560 1561 1562 1563 1563
1479 1479 1478 1478 1478 1480 1480 1480 1481 1482 1481 1482 1483 1484 1487 1490 1493 1495 1498 1500 1504 1508 1512 1515 1518 1522 1525 1527 1530 1532 1535 1537 1539 1541 1544 1546 1548 1550 1551 1553 1554 1555 1557 1558 1559 1560 1560 1561 1561
1478 1479 1479 1479 1479 1479 1481 1481 1481 1482 1482 1482 1483 1485 1487 1490 1492 1494 1496 1499 1502 1506 1510 1513 1516 1519 1522 1526 1529 1531 1534 1536 1538 1540 1542 1544 1546 1548 1549 1551 1552 1553 1555 1556 1557 1558 1558 1559 1559
1480 1482 1484 1481 1480 1480 1484 1485 1481 1481 1482 1482 1483 1484 1486 1489 1491 1494 1496 1499 1502 1505 1508 1511 1514 1517 1520 1523 1526 1529 1531 1534 1536 1538 1540 1542 1544 1545 1547 1548 1550 1551 1552 1553 1554 1555 1556 1556 1557
1485 1487 1486 1483 1480 1480 1484 1485 1481 1481 1482 1482 1483 1484 1485 1487 1490 1493 1495 1497 1500 1502 1506 1508 1511 1514 1517 1520 1523 1526 1529 1531 1533 1535 1537 1539 1541 1543 1544 1546 1547 1549 1550 1551 1551 1552 1553 1554 1554
1487 1488 1487 1485 1482 1481 1484 1484 1481 1480 1481 1481 1481 1482 1484 1485 1488 1490 1492 1494 1497 1500 1502 1505 1508 1510 1514 1517 1520 1523 1526 1528 1529 1532 1534 1536 1537 1539 1541 1542 1544 1545 1546 1547 1548 1549 1550 1551 1551
1483 1486 1487 1485 1483 1484 1484 1484 1481 1478 1479 1479 1479 1481 1482 1484 1485 1487 1489 1492 1494 1496 1499 1502 1504 1506 1510 1513 1515 1518 1520 1523 1525 1528 1530 1532 1534 1535 1537 1539 1540 1542 1543 1544 1545 1546 1547 1547 1548
1482 1485 1486 1485 1483 1484 1484 1483 1479 1477 1477 1477 1477 1478 1479 1481 1482 1484 1486 1489 1490 1492 1495 1498 1500 1503 1506 1508 1511 1514 1516 1519 1522 1524 1525 1527 1529 1531 1533 1535 1536 1537 1539 1540 1541 1542 1543 1543 1544
1484 1486 1486 1486 1485 1484 1486 1485 1480 1475 1474 1474 1474 1474 1476 1478 1479 1481 1483 1486 1487 1490 1491 1493 1496 1499 1502 1504 1507 1510 1512 1514 1516 1519 1520 1523 1525 1527 1529 1530 1532 1533 1535 1536 1537 1538 1539 1539 1540
1486 1484 1484 1485 1489 1492 1490 1493 1482 1477 1474 1472 1471 1472 1473 1475 1477 1478 1480 1482 1484 1486 1488 1490 1492 1495 1497 1500 1502 1504 1506 1508 1510 1513 1515 1518 1520 1522 1524 1526 1527 1529 1530 1531 1533 1534 1534 1535 1535
1485 1484 1485 1487 1490 1493 1493 1494 1486 1479 1476 1472 1470 1470 1470 1472 1474 1475 1477 1479 1481 1483 1484 1486 1488 1490 1492 1494 1497 1499 1501 1503 1506 1509 1511 1513 1515 1517 1519 1521 1522 1524 1525 1526 1528 1529 1530 1530 1530
1485 1487 1489 1491 1493 1497 1494 1495 1489 1482 1475 1472 1469 1468 1469 1470 1471 1473 1474 1476 1478 1479 1481 1482 1484 1485 1488 1490 1492 1494 1496 1499 1501 1503 1505 1508 1510 1512 1514 1516 1517 1519 1520 1522 1523 1524 1525 1525 1526
1487 1494 1501 1501 1504 1501 1495 1494 1487 1476 1473 1472 1470 1468 1467 1468 1469 1470 1471 1473 1474 1475 1477 1478 1479 1481 1483 1485 1487 1489 1491 1494 1496 1499 1501 1503 1505 1507 1509 1511 1513 1514 1516 1517 1518 1519 1519 1520 1520
1490 1493 1502 1505 1506 1504 1496 1494 1483 1473 1471 1470 1469 1468 1467 1466 1467 1467 1468 1469 1470 1472 1473 1474 1475 1476 1478 1479 1482 1484 1487 1489 1491 1494 1496 1498 1500 1502 1504 1506 1508 1509 1511 1512 1513 1514 1514 1515 1515
1491 1495 1497 1505 1508 1506 1498 1492 1481 1471 1470 1469 1468 1467 1466 1466 1465 1465 1466 1466 1467 1469 1470 1471 1471 1472 1474 1475 1477 1479 1481 1483 1486 1489 1491 1493 1496 1498 1499 1501 1503 1504 1506 1507 1508 1508 1509 1510 1510
1491 1494 1500 1503 1506 1505 1499 1495 1488 1476 1474 1472 1470 1468 1467 1465 1464 1464 1464 1464 1465 1466 1466 1467 1468 1469 1470 1472 1473 1475 1477 1479 1481 1484 1486 1488 1490 1492 1495 1496 1498 1500 1501 1502 1503 1503 1504 1504 1505
1494 1495 1498 1504 1505 1507 1503 1494 1480 1478 1476 1475 1472 1469 1468 1466 1464 1463 1463 1463 1463 1463 1464 1464 1465 1466 1467 1468 1470 1471 1473 1474 1476 1478 1481 1483 1485 1487 1490 1491 1493 1495 1496 1497 1498 1499 1499 1499 1500
1492 1494 1498 1504 1506 1508 1506 1495 1476 1477 1475 1474 1472 1469 1468 1466 1464 1463 1462 1462 1461 1461 1462 1462 1463 1463 1464 1465 1466 1468 1469 1471 1472 1474 1476 1479 1481 1483 1485 1487 1488 1490 1491 1492 1493 1494 1494 1495 1495